{"data":{"norad_id":69301,"intl_designator":"2026-119F","name":"STARLINK-37630","alt_names":[],"object_type":"PAYLOAD","status":"ACTIVE","operator":null,"country":"US","launch_date":"2026-05-30","launch_site_code":"AFWTR","launch_vehicle":null,"mission":null,"orbit_class":"UNKNOWN","rcs_meters":null,"size_class":null,"mass_kg":null,"dimensions":null,"purposes":["comms"],"wikipedia_slug":null,"has_3d_model":false,"image_url":null,"decayed_at":null,"tle_current":{"epoch":"2026-09-20T01:26:39.520032Z","epoch_age_seconds":67027,"freshness":"FRESH","line1":"1 69301U 26119F   26263.06017963  .00019142  00000+0  59361-3 0  9992","line2":"2 69301  97.2830 287.7650 0000255 126.4070 233.7196 15.33452896 18597","mean_motion":15.33452896,"eccentricity":2.55e-5,"inclination_deg":97.283,"raan_deg":287.765,"arg_perigee_deg":126.407,"mean_anomaly_deg":233.7196,"bstar":0.00059361,"rev_number":1859,"period_min":93.905721118414,"perigee_km":465.34516839287,"apogee_km":465.69419488363,"semimajor_km":6843.6566816382,"source":"CELESTRAK","updated_at":"2026-09-20T09:00:44.154881Z"}}}